User: anonymous   Login
Location: Austin
(30.3000°N, 97.7500°W)
Time: 23:38:10
(UTC-06:00)
Language:

COSMOS 2428 - Orbit

View from above orbital plane
View from above orbital plane
View from above satellite
View from above satellite

Ground track
Ground track

The orbit data is extracted from the following two-line orbital elements,

1 31792U 07029A   24051.51833780  .00000242  00000-0  15622-3 0  9994
2 31792  70.9493 333.6312 0012165 222.6689 137.3488 14.12697330858424
Epoch (UTC): 20 February 2024 12:26:24
Eccentricity: 0.0012165
inclination: 70.9493°
perigee height: 841 km
apogee height: 859 km
right ascension of ascending node: 333.6312°
argument of perigee: 222.6689°
revolutions per day: 14.12697330
mean anomaly at epoch: 137.3488°
orbit number at epoch: 85842

The dashed part of the orbit path shows where the satellite is in the earth's shadow,  

DLR